Weather History for KRBD - February, 2014

Change the Weather History Date:

Tuesday, February 18, 2014

  Actual Average Record
Temperature  
Mean Temperature 64 °F -  
Max Temperature 81 °F 59 °F 81 °F (2014)
Min Temperature 48 °F 40 °F 24 °F (2006)
Growing Degree Days 14 (Base 50)    
Moisture  
Dew Point 44 °F    
Average Humidity 48    
Maximum Humidity 76    
Minimum Humidity 29    
Precipitation  
Precipitation 0.00 in - - ()
Sea Level Pressure  
Sea Level Pressure 29.94 in    
Wind  
Wind Speed 5 mph (South)    
Max Wind Speed 15 mph    
Max Gust Speed 26 mph    
Visibility 10 miles    
Events      
Averages and records for this station are not official NWS values.
T = Trace of Precipitation, MM = Missing Value Source: NWS Daily Summary

Daily Weather History Graph

Daily Weather History Graph

Search for Another Location

Airport or City:

Trip Planner

Search our weather history database for the weather conditions in past years. The results will help you decide how hot, cold, wet, or windy it might be!

Date:

Astronomy

Feb. 18, 2014 Rise Set
Actual Time 7:07 AM CST 6:15 PM CST
Civil Twilight 6:42 AM CST 6:40 PM CST
Nautical Twilight 6:13 AM CST 7:09 PM CST
Astronomical Twilight 5:45 AM CST 7:38 PM CST
Moon 9:54 PM CST (2/18) 8:54 AM CST (2/18)
Length of Visible Light 11h 58m
Length of Day
11h 08m
Waning Gibbous, 87% of the Moon is Illuminated
Feb 18
Waning Gibbous
Feb 22
Last Quarter
Mar 1
New
Mar 8
First Quarter
Mar 16
Full

Hourly Weather History & Observations

Time (CST) Temp. Heat Index Dew Point Humidity Pressure Visibility Wind Dir Wind Speed Gust Speed Precip Events Conditions
12:53 AM 50.0 °F - 26.1 °F 39% 30.09 in 10.0 mi Calm Calm - N/A   Clear
1:53 AM 50.0 °F - 26.1 °F 39% 30.09 in 10.0 mi Calm Calm - N/A   Clear
2:53 AM 50.0 °F - 26.1 °F 39% 30.06 in 10.0 mi SSE 3.5 mph - N/A   Clear
3:53 AM 48.9 °F - 26.1 °F 41% 30.04 in 10.0 mi SSE 4.6 mph - N/A   Clear
4:53 AM 50.0 °F - 28.9 °F 44% 30.03 in 10.0 mi SE 4.6 mph - N/A   Clear
5:53 AM 51.1 °F - 28.0 °F 41% 30.02 in 10.0 mi SE 4.6 mph - N/A   Clear
6:53 AM 48.9 °F - 28.9 °F 46% 30.02 in 10.0 mi SSE 4.6 mph - N/A   Clear
7:53 AM 50.0 °F - 32.0 °F 50% 30.02 in 10.0 mi SSE 4.6 mph - N/A   Clear
8:53 AM 59.0 °F - 30.9 °F 35% 30.01 in 10.0 mi SSE 9.2 mph - N/A   Clear
9:53 AM 64.9 °F - 32.0 °F 29% 30.01 in 10.0 mi SSE 8.1 mph - N/A   Clear
10:53 AM 69.1 °F - 41.0 °F 36% 29.99 in 10.0 mi South 8.1 mph - N/A   Clear
11:53 AM 75.0 °F - 51.1 °F 43% 29.97 in 10.0 mi SSW 6.9 mph 19.6 mph N/A   Clear
12:53 PM 78.1 °F - 55.0 °F 45% 29.92 in 10.0 mi SW 9.2 mph 19.6 mph N/A   Clear
1:53 PM 79.0 °F - 54.0 °F 42% 29.87 in 10.0 mi South 15.0 mph 25.3 mph N/A   Clear
2:53 PM 81.0 °F 80.8 °F 55.9 °F 42% 29.84 in 10.0 mi South 10.4 mph 26.5 mph N/A   Clear
3:53 PM 79.0 °F - 55.0 °F 44% 29.83 in 10.0 mi South 11.5 mph 24.2 mph N/A   Clear
4:53 PM 79.0 °F - 57.0 °F 47% 29.83 in 10.0 mi SSW 9.2 mph 16.1 mph N/A   Clear
5:53 PM 77.0 °F - 57.9 °F 52% 29.83 in 10.0 mi South 10.4 mph - N/A   Clear
6:53 PM 73.9 °F - 57.9 °F 57% 29.84 in 10.0 mi South 6.9 mph - N/A   Clear
7:53 PM 71.1 °F - 57.0 °F 61% 29.86 in 10.0 mi SSE 6.9 mph - N/A   Clear
8:53 PM 70.0 °F - 57.0 °F 63% 29.86 in 10.0 mi South 5.8 mph - N/A   Clear
9:53 PM 69.1 °F - 57.9 °F 68% 29.87 in 9.0 mi South 9.2 mph - N/A   Clear
10:53 PM 68.0 °F - 57.9 °F 70% 29.86 in 9.0 mi Variable 6.9 mph - N/A   Clear
11:53 PM 66.9 °F - 59.0 °F 76% 29.87 in 9.0 mi South 6.9 mph - N/A   Clear